Dayton, OH (45420)

1:18 AM EST on February 22, 2017 (GMT -0500)
Kettering | | Change Station

Elev 911 ft 39.71 °N, 84.12 °W | Updated 42 seconds ago

Overcast
Overcast
55.4 °F
Feels Like 55.4 °F
N
2.9
Wind Variable Wind from South
Gusts 2.9 mph

Today
High -- | Low -- °F
--% Chance of Precip.
Yesterday
High -- | Low -- °F
Precip. -- in
Pressure 29.94 in
Visibility 10.0 miles
Clouds Overcast 12000 ft
Dew Point 36 °F
Humidity 47%
Rainfall 0.00 in
Snow Depth Not available.
7:19 AM 6:21 PM
Waning Crescent, 19% visible
METAR KFFO 220558Z 00000KT 10SM OVC120 12/12 A2993 RMK AO2A SLP137 60002 T01220122 10152 20120 57017
Pressure 29.94 in
Visibility 10.0 miles
Clouds Overcast 12000 ft
Dew Point 36 °F
Humidity 47%
Rainfall 0.00 in
Snow Depth Not available.
7:19 AM 6:21 PM
Waning Crescent, 19% visible
METAR KFFO 220558Z 00000KT 10SM OVC120 12/12 A2993 RMK AO2A SLP137 60002 T01220122 10152 20120 57017

Get Your Daily Forecast Email!

Thanks for signing up!

Be on the lookout for a verification email in your inbox.

You'll start receiving the daily forecast at 8 AM.

×

10-Day Weather Forecast

Almanac

Astronomy

Feb. 22, 2017 Rise Set
Actual Time
Civil Twilight
Nautical Twilight
Astronomical Twilight
Moon
Length of Visible Light
Length of Day
Tomorrow will be .
, % of the Moon is Illuminated

Today's Extremes

State Highs State Lows

Community

WunderPhotos

Upload Photos

1,962,540 photos uploaded!

WunderBlog® & News

Nearby

Air Quality

  Air Quality AQ Index Pollutant
Not available.

Snow Depth

Station Depth Elevation

Earthquake Activity

City Distance Mag. Time & Date
Minimum magnitude displayed is 2.5.

Coastal Water Temperatures

Place Temperature

Stations

Nearby Weather Stations

Station Location Temp. Windchill Dew Point Humidity Wind Precip. Elev Updated Type
                   

Watches & Warnings

There are currently no watches in effect.